Theta_e
321 326 326 329 331 335 335 340 342 338 348 346 343 337 352 357 359 358 352 353 353 350 347 346 349 349 349 346 343 345 346 349 348 349 348 349 350 350 350 351 352 352 352 352
322 324 326 329 333 337 336 339 340 335 333 338 334 335 349 350 357 359 355 353 354 351 349 347 349 349 348 345 342 345 346 350 349 346 347 348 349 350 351 351 352 351 352 350
323 323 326 332 336 338 336 337 340 339 334 334 339 342 354 353 353 357 355 354 353 352 350 350 350 349 346 345 343 345 348 350 349 346 349 352 352 352 349 353 352 352 354 352
322 323 324 330 336 335 336 335 335 336 336 338 336 346 349 358 357 360 357 355 353 352 351 350 349 349 346 345 345 346 349 350 350 351 349 351 349 348 349 350 351 353 353 352
325 323 325 330 334 334 336 335 335 335 338 335 332 339 350 350 359 360 359 357 353 350 349 351 349 348 347 346 346 347 350 351 351 352 349 351 351 348 350 350 351 353 354 352
327 324 326 331 334 335 335 333 332 333 335 337 334 335 340 344 340 341 356 358 356 353 350 349 348 348 347 347 347 348 350 353 352 354 354 352 351 351 348 350 351 350 353 352
325 327 328 331 335 334 334 333 333 332 333 334 333 334 339 335 336 340 342 341 357 354 353 351 350 348 347 346 347 348 350 352 353 353 353 353 353 353 352 351 347 351 352 350
325 326 327 328 333 334 334 333 332 333 332 332 331 332 333 333 341 349 350 344 344 356 353 352 350 349 348 347 348 349 350 352 352 352 353 354 353 351 351 350 347 350 350 351
326 323 318 319 320 324 332 334 330 329 330 331 331 334 329 331 344 344 349 349 349 355 354 352 350 349 349 349 349 350 350 353 353 352 352 354 354 352 349 349 351 349 349 350
321 323 319 318 319 321 325 328 330 328 332 333 332 334 333 335 345 344 344 347 351 351 354 353 351 350 349 349 349 350 350 352 353 352 352 352 353 353 352 352 352 350 349 352
318 321 320 320 322 324 323 325 326 328 329 331 333 333 325 336 339 339 337 334 338 342 348 347 352 350 350 350 350 350 350 351 353 352 352 352 352 352 353 352 352 352 351 352
317 320 321 321 317 317 321 324 326 328 331 330 331 328 328 333 332 328 326 325 325 327 329 330 330 330 341 349 349 350 350 350 351 351 352 352 352 351 350 352 351 352 352 352
316 318 321 320 319 318 321 320 322 323 326 331 329 327 330 331 333 322 320 319 319 319 318 318 317 319 323 334 340 349 349 349 349 351 351 351 352 351 351 350 351 350 351 351
317 318 319 320 321 321 321 319 320 323 327 329 329 327 330 329 329 328 319 316 316 316 316 315 315 316 316 319 324 337 346 349 349 350 350 350 350 350 351 351 351 351 351 351
321 322 320 318 317 318 318 318 318 321 324 327 326 327 328 327 325 323 323 321 317 316 316 316 314 313 314 314 315 323 334 341 346 349 350 350 350 351 351 351 352 352 352 351
318 322 321 320 317 318 318 317 316 316 318 322 323 324 322 323 323 322 321 321 320 318 317 315 314 314 313 314 313 315 318 332 336 347 348 350 351 351 352 352 351 352 352 352
318 320 321 320 317 316 317 318 316 317 318 320 322 324 321 321 320 319 319 320 319 318 317 317 315 313 314 314 315 313 314 323 327 333 347 348 349 351 352 353 353 352 351 351
317 320 318 318 317 316 319 316 316 318 319 320 321 320 318 318 317 317 318 317 316 315 315 315 314 314 315 315 314 314 314 315 321 326 336 346 346 348 351 352 352 353 353 353
316 317 317 319 317 317 315 315 316 319 319 317 318 317 315 315 316 319 316 314 313 313 312 312 312 313 315 316 315 315 314 314 315 320 324 335 337 349 350 350 352 352 352 353
314 316 319 318 322 319 320 314 314 315 319 315 315 315 315 315 315 320 314 312 312 311 311 311 311 312 314 316 316 316 317 316 315 314 318 323 335 336 345 348 350 350 351 352
319 320 322 320 322 319 316 313 314 316 320 314 313 313 313 314 314 312 311 311 311 310 310 310 311 312 313 314 315 316 317 318 318 316 316 318 329 333 331 340 348 349 352 351
318 322 323 321 322 325 315 314 318 317 313 312 312 311 311 310 310 310 310 310 310 310 310 310 310 311 312 313 314 315 316 316 317 318 317 316 320 331 329 336 339 348 349 353
320 318 322 320 321 316 315 314 313 312 313 311 311 309 308 309 310 309 309 309 308 308 307 307 307 307 308 310 312 313 314 314 315 315 317 318 317 322 328 331 337 338 347 349
315 314 318 317 314 314 315 312 312 311 311 310 309 309 309 310 309 309 309 308 307 307 307 306 306 306 307 308 309 311 312 312 313 313 315 317 318 319 324 327 329 334 338 344
316 315 316 317 315 313 313 313 312 311 311 310 309 309 310 310 309 309 309 308 308 308 307 306 306 306 306 306 307 308 308 309 310 312 313 316 318 319 322 325 327 331 335 340
315 316 320 322 316 316 313 313 312 312 311 310 310 310 309 309 310 309 309 308 307 307 306 306 306 305 305 305 306 306 306 306 308 310 312 315 318 319 320 322 324 326 331 333
Wind_Speed
15 11 16 17 16 7 11 15 14 6 8 6 4 5 10 15 16 18 15 15 18 19 24 25 22 19 17 17 18 18 18 17 17 16 15 12 11 8 7 6 4 3 4 2
11 17 15 13 11 9 10 13 10 6 6 6 7 6 7 14 15 16 15 18 19 20 20 24 22 22 19 19 20 19 19 18 18 17 15 12 9 8 7 7 7 5 5 5
16 10 11 12 16 14 13 14 12 6 7 4 5 8 8 8 12 11 15 17 18 20 21 20 23 24 21 20 20 20 19 18 18 16 15 11 9 6 7 8 8 7 6 5
11 7 15 17 18 16 14 9 5 9 8 10 8 7 8 10 11 10 12 14 16 19 20 22 24 26 24 22 20 19 19 18 18 17 15 13 12 10 9 9 9 8 7 6
11 17 18 19 17 15 5 9 12 9 10 2 10 9 9 7 11 10 12 15 17 16 15 21 26 27 25 23 21 20 18 19 18 18 16 15 13 11 8 8 8 8 8 6
3 12 14 13 12 13 9 10 8 7 10 11 11 13 8 5 3 1 12 18 17 18 20 22 26 27 27 25 23 21 21 21 20 19 19 17 13 12 10 11 9 9 10 9
7 12 11 14 16 15 14 14 9 9 9 9 15 9 11 7 6 5 4 10 19 18 19 20 20 26 27 27 25 23 22 22 22 22 20 20 17 14 12 10 11 10 10 10
12 13 15 7 15 13 18 18 8 11 12 13 8 10 7 9 9 9 10 3 15 19 19 20 22 26 27 26 24 23 22 21 23 24 23 20 18 16 16 15 12 13 10 9
14 8 6 1 2 8 19 18 13 7 4 12 12 12 13 7 11 14 16 11 3 15 16 18 22 24 26 27 27 25 22 20 21 23 22 21 20 20 18 15 13 14 11 10
1 6 3 2 5 2 6 13 10 9 12 14 12 17 9 7 11 14 17 18 13 4 10 13 18 21 23 25 26 25 24 22 21 20 22 22 22 20 19 17 16 14 13 13
6 6 9 8 3 5 9 10 10 12 8 13 9 7 6 7 10 12 14 15 17 20 17 14 9 15 15 19 22 23 24 23 21 20 21 22 22 22 20 20 18 18 16 15
6 4 10 7 5 2 3 4 9 11 13 8 7 7 7 9 12 11 13 14 16 17 17 18 25 29 20 11 17 20 21 23 23 22 20 23 22 21 21 21 21 19 19 18
3 1 8 10 8 5 3 2 4 8 8 17 11 8 9 10 12 13 14 14 14 16 18 18 24 24 24 22 26 7 15 17 18 17 19 20 21 22 23 22 21 20 20 21
4 3 5 2 7 7 8 4 1 8 11 8 6 19 13 11 12 12 14 13 14 15 16 15 15 20 23 24 21 23 18 8 11 15 16 19 20 23 24 25 22 21 21 22
4 4 5 6 6 4 3 3 2 1 5 7 17 16 13 11 11 11 11 12 13 15 16 15 14 16 17 20 22 18 18 16 11 12 15 18 18 20 22 23 23 23 23 23
3 3 5 3 1 1 5 3 2 2 3 6 12 14 10 8 8 8 9 10 12 13 12 14 17 19 19 18 18 18 20 18 19 12 12 17 18 18 19 20 23 25 25 24
2 5 6 9 3 3 8 10 5 6 2 1 10 13 5 7 5 6 6 6 10 12 13 14 12 16 19 20 19 20 22 18 17 19 15 10 17 18 18 19 20 21 25 28
4 4 3 3 6 8 7 4 2 4 6 6 10 8 5 2 3 3 8 8 10 12 13 14 17 17 18 18 17 18 18 18 19 22 22 18 10 15 16 18 20 22 24 25
3 4 3 4 10 4 7 6 6 11 9 3 4 4 3 4 5 10 7 9 11 13 14 15 17 18 18 18 18 19 21 18 18 20 22 21 21 9 8 18 20 22 23 25
3 2 4 4 4 5 10 6 3 3 6 7 3 3 4 6 6 10 10 14 15 15 17 18 18 17 16 17 18 19 18 17 18 22 21 20 20 22 12 18 20 23 25 25
5 4 7 7 5 1 7 6 4 7 5 8 3 2 2 3 5 10 13 13 14 15 16 18 20 18 16 16 18 18 18 17 18 20 22 23 21 22 19 21 20 21 23 25
5 4 4 5 4 6 11 6 4 7 6 5 3 1 1 3 4 7 10 12 15 16 17 17 18 19 20 19 18 19 19 19 21 23 24 22 21 20 20 21 22 17 21 25
4 3 2 4 1 2 12 3 5 3 4 4 3 2 1 3 5 8 9 11 13 15 17 18 18 20 20 20 20 21 21 22 23 24 25 25 22 21 21 21 19 20 21 23
7 5 3 2 5 8 11 7 5 5 5 5 4 2 2 4 6 8 8 10 12 13 16 17 18 20 20 19 21 24 25 24 25 27 26 27 25 23 22 22 21 20 21 23
4 9 8 7 9 4 11 12 9 9 7 6 5 4 4 5 6 7 8 11 14 14 15 16 17 19 23 24 23 22 24 27 28 28 27 26 25 25 25 24 24 23 22 25
9 9 7 6 7 10 3 14 14 11 11 8 6 6 6 6 6 8 10 13 15 18 19 19 19 20 24 25 25 25 24 25 28 28 27 25 25 24 25 24 26 27 28 28
Wind_Direction
192 201 208 196 208 299 185 208 182 128 165 202 163 146 162 174 184 170 190 203 191 193 187 190 190 195 184 185 184 185 185 184 180 177 183 183 185 190 195 184 172 160 176 163
176 218 200 198 193 178 193 194 178 145 134 249 154 178 138 187 189 188 184 197 197 193 181 193 193 199 189 183 186 186 191 190 189 184 187 193 200 199 204 190 179 175 170 177
203 195 172 196 193 194 196 205 169 199 167 201 219 185 166 179 188 169 187 193 198 192 184 193 186 198 188 184 186 188 190 191 192 190 187 198 196 205 194 189 180 185 187 170
230 149 182 195 198 207 193 212 173 191 213 207 219 170 166 147 170 175 195 201 198 197 195 187 189 195 190 190 191 190 189 193 195 195 198 205 204 209 199 192 183 172 187 167
201 196 193 194 198 206 169 177 202 205 216 248 192 261 116 164 157 180 214 205 207 193 204 198 194 193 193 193 195 194 194 195 200 202 207 206 217 209 192 199 174 173 183 187
235 206 195 194 184 202 116 170 171 199 218 214 202 232 108 89 38 104 197 197 216 194 190 220 196 192 196 194 199 197 197 200 201 206 209 211 217 218 207 199 175 194 187 188
174 190 179 207 185 193 194 185 173 194 200 225 183 219 69 80 44 6 296 245 205 203 195 198 196 197 197 197 199 198 200 205 205 207 212 211 215 216 218 210 211 200 192 196
189 167 183 193 214 188 207 207 211 199 202 179 156 219 109 78 51 29 3 289 210 195 197 194 198 199 196 199 199 200 201 205 208 210 215 213 215 217 222 217 225 212 211 202
194 126 123 23 232 268 188 225 249 277 286 202 165 93 105 72 52 40 26 25 173 190 203 194 193 202 198 201 201 202 204 207 209 213 214 215 214 218 219 230 223 223 224 212
239 136 215 106 205 183 283 215 210 238 185 219 169 170 89 45 34 39 38 20 21 171 190 196 200 195 202 204 204 207 207 210 212 213 214 215 218 220 220 221 229 232 227 225
297 259 145 195 242 196 193 209 237 236 257 218 164 135 68 57 47 46 46 34 30 33 34 13 5 197 204 209 208 210 214 216 218 217 220 217 218 219 220 219 230 233 234 228
6 299 167 119 111 325 313 318 238 221 197 255 270 100 98 82 76 66 55 50 41 41 41 40 36 27 17 212 217 210 217 217 221 224 221 222 221 222 222 223 220 229 231 230
359 327 154 168 169 180 184 149 254 271 286 215 236 121 119 104 92 78 69 60 54 52 45 39 36 30 25 24 17 308 219 227 221 221 226 225 223 222 225 226 227 221 228 228
260 124 358 290 69 112 154 129 7 255 233 214 233 128 132 112 95 87 86 66 54 52 50 47 39 29 21 25 18 15 11 326 258 229 232 232 228 228 229 228 225 225 225 229
319 151 127 72 67 70 111 113 47 9 326 266 134 135 121 109 94 81 74 77 62 44 38 37 34 29 23 18 17 13 7 8 338 305 251 233 238 236 236 232 228 226 225 229
329 165 178 150 94 318 251 174 197 170 142 108 143 116 114 115 104 77 61 54 48 42 33 25 20 19 18 14 8 2 360 359 353 340 287 277 245 239 236 235 232 231 231 230
266 176 212 219 186 240 239 216 204 133 125 237 189 104 138 118 72 28 11 52 34 21 13 10 14 11 4 0 359 359 353 355 349 343 335 285 261 254 243 242 238 236 235 233
175 173 211 147 192 220 76 103 108 153 105 106 106 99 90 61 357 340 74 50 21 6 359 356 353 352 354 349 350 348 352 351 348 345 348 351 273 249 255 251 247 245 242 238
322 188 188 206 212 72 175 189 185 185 144 109 121 101 52 352 291 124 98 22 355 347 343 343 339 337 334 339 340 340 341 345 347 344 340 338 333 304 270 261 258 250 246 242
167 254 244 190 235 233 73 123 146 186 187 144 134 87 12 334 252 98 359 342 339 337 335 332 332 324 327 331 332 331 332 338 337 335 328 323 319 323 360 291 271 257 249 243
182 194 209 217 236 244 120 139 164 214 90 135 118 77 8 339 350 337 339 336 333 332 330 328 323 321 321 323 323 320 322 325 329 325 324 324 319 325 325 308 278 262 252 243
210 209 204 238 241 239 146 150 240 91 121 133 147 89 342 343 329 336 336 339 338 334 333 333 325 318 316 316 315 314 315 321 321 318 319 318 315 307 305 293 294 282 264 250
236 219 276 237 142 92 167 64 113 131 144 164 177 146 256 301 329 337 330 337 338 337 334 329 322 316 308 307 306 304 305 311 313 312 308 307 304 292 288 286 287 291 276 258
219 201 233 296 193 185 182 172 176 186 178 173 174 185 236 297 321 320 336 338 332 337 335 331 326 317 312 308 302 298 300 301 302 301 300 299 297 297 290 288 280 275 280 273
220 168 220 242 257 208 223 219 202 191 193 199 208 243 280 294 306 323 333 332 331 325 326 325 318 318 312 307 299 292 294 298 295 292 291 290 286 287 283 279 276 273 266 271
200 212 197 220 221 199 220 191 190 198 200 208 226 239 246 256 284 313 320 339 326 324 321 311 309 309 311 304 296 295 292 289 287 287 283 281 283 277 273 274 281 272 270 277